Flag for U.S.A. Weather past 2 weeks in Petersburg, Indiana, U.S.A.

Now
34 °F

Partly sunny.


Feels Like: 31 °F
Forecast: 28 / 35 °F
Wind: 3 mph from Northwest

Location: Huntingburg Airport

Current Time: Mar 1, 2015 at 11:15:21 AM

Latest Report: Mar 1, 2015 at 10:35 AM


Visibility: 7 mi

Pressure: 30.36 "Hg

Humidity: 81%

Dew point: 28 °F

Location of PetersburgLocation

Historic Weather in Petersburg — Graph

°F

Petersburg temperature yesterday

Maximum temperature yesterday: 34 °F (at 2:35 PM)
Minimum temperature yesterday: 16 °F (at 12:15 AM)
Average temperature yesterday: 25 °F

Past Weeks' High & Low Weather Summary

 TemperatureHumidityPressure
High36 °F (Feb 14, 10:15 AM)100% (Feb 17, 8:55 AM)30.69 "Hg (Feb 17, 8:55 AM)
Low-11 °F (Feb 20, 2:55 AM)41% (Feb 14, 6:35 PM)29.85 "Hg (Feb 18, 3:55 AM)
Average19 °F66%30.26 "Hg
* Reported Feb 14 10:15 AM — Mar 1 10:15 AM, Petersburg, Weather by CustomWeather, © 2015

Note: Actual official high and low records may vary slightly from our data, if they occured in-between our weather recording intervals... More about our weather records

Advertising

Petersburg weather history for previous 24 hours

 ConditionsComfort  
Time TempWeatherWind HumidityBarometerVisibility
10:15 AM
Sun, Mar 1
34 °FPartly sunny.No wind81%30.37 "Hg8 mi
9:55 AM34 °FPartly sunny.No wind81%30.36 "Hg9 mi
9:35 AM32 °FPartly sunny.No wind80%30.36 "Hg9 mi
9:15 AM32 °FBroken clouds.No wind80%30.36 "Hg8 mi
8:55 AM32 °FPassing clouds.No wind80%30.36 "Hg8 mi
8:35 AM32 °FPartly sunny.No wind87%30.37 "Hg7 mi
8:15 AM32 °FPassing clouds.3 mph80%30.36 "Hg9 mi
7:55 AM32 °FPassing clouds.6 mph80%30.36 "Hg9 mi
7:35 AM32 °FScattered clouds.6 mph80%30.36 "Hg8 mi
7:15 AM32 °FPassing clouds.7 mph80%30.36 "Hg10 mi
6:55 AM32 °FPassing clouds.8 mph80%30.38 "Hg10 mi
6:35 AM32 °FPassing clouds.6 mph75%30.37 "Hg9 mi
6:15 AM32 °FPassing clouds.8 mph75%30.37 "Hg10 mi
5:55 AM30 °FPassing clouds.9 mph80%30.37 "Hg10 mi
5:35 AM30 °FPassing clouds.13 mph80%30.37 "Hg10 mi
5:15 AM30 °FPassing clouds.9 mph80%30.38 "Hg9 mi
4:55 AM30 °FPassing clouds.5 mph80%30.39 "Hg5 mi
4:35 AM30 °FClear.3 mph80%30.40 "Hg10 mi
4:15 AM30 °FClear.No wind80%30.40 "Hg10 mi
3:55 AM30 °FClear.6 mph80%30.40 "Hg10 mi
3:35 AM30 °FClear.7 mph80%30.40 "Hg10 mi
3:15 AM30 °FPassing clouds.3 mph75%30.41 "Hg10 mi
2:55 AM30 °FPassing clouds.3 mph75%30.42 "Hg10 mi
2:35 AM30 °FClear.7 mph75%30.41 "Hg10 mi
2:15 AM28 °FClear.5 mph74%30.42 "Hg10 mi
1:55 AM28 °FPassing clouds.8 mph74%30.42 "Hg5 mi
1:35 AM30 °FPassing clouds.6 mph69%30.44 "Hg10 mi
1:15 AM28 °FClear.7 mph69%30.45 "Hg10 mi
12:55 AM30 °FClear.8 mph64%30.45 "Hg10 mi
12:15 AM30 °FClear.7 mph59%30.47 "Hg10 mi
11:55 PM
Sat, Feb 28
30 °FClear.12 mph59%30.47 "Hg10 mi
11:35 PM30 °FClear.12 mph59%30.48 "Hg10 mi
11:15 PM30 °FClear.8 mph55%30.50 "Hg10 mi
10:55 PM30 °FClear.9 mph59%30.50 "Hg10 mi
10:15 PM32 °FClear.9 mph55%30.50 "Hg10 mi
9:55 PM32 °FClear.9 mph55%30.50 "Hg10 mi
9:35 PM32 °FClear.5 mph55%30.50 "Hg10 mi
9:15 PM32 °FClear.7 mph55%30.49 "Hg10 mi
8:55 PM32 °FClear.7 mph55%30.49 "Hg10 mi
8:35 PM32 °FClear.8 mph55%30.48 "Hg10 mi
8:15 PM34 °FClear.7 mph48%30.49 "Hg10 mi
7:55 PM34 °FClear.7 mph48%30.49 "Hg10 mi
7:35 PM34 °FClear.7 mph48%30.49 "Hg10 mi
7:15 PM34 °FClear.5 mph51%30.50 "Hg10 mi
6:55 PM34 °FPassing clouds.6 mph48%30.49 "Hg10 mi
6:35 PM34 °FPartly sunny.5 mph48%30.49 "Hg10 mi
6:15 PM34 °FOvercast.8 mph48%30.49 "Hg10 mi
5:55 PM34 °FOvercast.8 mph48%30.50 "Hg10 mi
5:35 PM34 °FOvercast.6 mph48%30.50 "Hg10 mi
5:15 PM34 °FOvercast.6 mph48%30.51 "Hg10 mi
4:55 PM34 °FOvercast.7 mph48%30.51 "Hg10 mi
4:35 PM34 °FOvercast.7 mph48%30.52 "Hg10 mi
4:15 PM34 °FOvercast.8 mph48%30.52 "Hg10 mi
3:55 PM34 °FOvercast.7 mph48%30.53 "Hg10 mi
3:35 PM34 °FPartly sunny.9 mph48%30.53 "Hg10 mi
3:15 PM34 °FBroken clouds.8 mph48%30.54 "Hg10 mi
2:55 PM34 °FOvercast.8 mph48%30.54 "Hg10 mi
2:35 PM34 °FPartly sunny.8 mph44%30.55 "Hg10 mi
2:15 PM32 °FPartly sunny.10 mph47%30.56 "Hg10 mi
1:55 PM30 °FPartly sunny.10 mph47%30.58 "Hg10 mi
1:35 PM30 °FBroken clouds.8 mph47%30.60 "Hg10 mi
1:15 PM30 °FOvercast.7 mph47%30.62 "Hg10 mi
12:55 PM28 °FOvercast.5 mph47%30.63 "Hg10 mi
12:35 PM28 °FScattered clouds.9 mph47%30.64 "Hg10 mi
12:15 PM28 °FSunny.9 mph47%30.64 "Hg10 mi
11:55 AM27 °FSunny.8 mph50%30.65 "Hg10 mi
11:35 AM27 °FSunny.9 mph50%30.66 "Hg10 mi
11:15 AM27 °FPassing clouds.10 mph50%30.66 "Hg10 mi
Weather by CustomWeather, © 2015

See weather overviewHow to use our weather pages